Track IRIDIUM 102 now! 10-day predictions IRIDIUM 102 is classified as:
1 41920U 17003D 25015.86340153 .00000799 00000-0 27835-3 0 9993 2 41920 86.3982 304.5939 0002233 82.5909 277.5541 14.34212463419139